Mount Pleasant, SC

7:53 AM EDT on April 23, 2018 (GMT -0400)
Mount Pleasant

Weather History for KLRO - November, 2012

Change the Weather History Date:

Sunday, November 18, 2012

  Actual Average (KCHS) Record (KCHS)
Temperature  
Mean Temperature 50 °F -  
Max Temperature 53 °F 70 °F 86 °F (1978)
Min Temperature 48 °F 46 °F 28 °F (1943)
Degree Days  
Heating Degree Days 14    
Moisture  
Dew Point 50 °F    
Average Humidity 94    
Maximum Humidity 100    
Minimum Humidity 77    
Precipitation  
Precipitation 1.20 in - - ()
Sea Level Pressure  
Sea Level Pressure 30.22 in    
Wind  
Wind Speed 10 mph (North)    
Max Wind Speed 15 mph    
Max Gust Speed 23 mph    
Visibility 4 miles    
Events Rain    
Averages and records for this station are not official NWS values.
T = Trace of Precipitation, MM = Missing Value Source: NWS Daily Summary

Daily Weather History Graph

Daily Weather History Graph

Search for Another Location

Airport or City:

Astronomy

Nov. 18, 2012 Rise Set
Actual Time 6:52 AM EST 5:15 PM EST
Civil Twilight 6:26 AM EST 5:42 PM EST
Nautical Twilight 5:56 AM EST 6:12 PM EST
Astronomical Twilight 5:26 AM EST 6:41 PM EST
Moon 11:21 AM EST (11/18) 10:29 PM EST (11/18)
Length of Visible Light 11h 15m
Length of Day
10h 23m
Waxing Crescent, 30% of the Moon is Illuminated
Nov 18
Waxing Crescent
Nov 20
First Quarter
Nov 28
Full
Dec 6
Last Quarter
Dec 13
New

Hourly Weather History & Observations

Time (EST) Temp. Dew Point Humidity Pressure Visibility Wind Dir Wind Speed Gust Speed Precip Events Conditions
12:35 AM 53.6 °F 46.4 °F 77% 30.28 in 10.0 mi North 6.9 mph - N/A   Overcast
12:55 AM 53.6 °F 46.4 °F 77% 30.28 in 10.0 mi North 8.1 mph 16.1 mph N/A   Scattered Clouds
1:15 AM 53.6 °F 46.4 °F 77% 30.27 in 10.0 mi North 9.2 mph - N/A   Partly Cloudy
1:35 AM 53.6 °F 46.4 °F 77% 30.27 in 10.0 mi North 10.4 mph 17.3 mph N/A   Scattered Clouds
1:55 AM 53.6 °F 46.4 °F 77% 30.27 in 10.0 mi North 8.1 mph 16.1 mph N/A   Mostly Cloudy
2:15 AM 53.6 °F 46.4 °F 77% 30.26 in 10.0 mi North 8.1 mph - N/A   Overcast
2:35 AM 53.6 °F 46.4 °F 77% 30.26 in 10.0 mi North 9.2 mph - N/A   Mostly Cloudy
2:55 AM 51.8 °F 46.4 °F 82% 30.26 in 10.0 mi North 9.2 mph - N/A   Mostly Cloudy
3:15 AM 51.8 °F 46.4 °F 82% 30.26 in 8.0 mi North 11.5 mph 16.1 mph N/A   Overcast
3:35 AM 51.8 °F 46.4 °F 82% 30.25 in 5.0 mi North 10.4 mph 16.1 mph N/A Rain Light Rain
3:55 AM 51.8 °F 48.2 °F 88% 30.25 in 5.0 mi North 9.2 mph - N/A Rain Light Rain
4:15 AM 51.8 °F 48.2 °F 88% 30.25 in 2.0 mi North 6.9 mph - 0.02 in Rain Rain
4:35 AM 50.0 °F 48.2 °F 94% 30.26 in 3.0 mi North 8.1 mph - 0.08 in Rain Rain
4:55 AM 50.0 °F 48.2 °F 94% 30.25 in 3.0 mi North 6.9 mph - 0.11 in Rain Light Rain
5:15 AM 50.0 °F 48.2 °F 94% 30.25 in 2.5 mi North 8.1 mph - 0.03 in Rain Rain
5:35 AM 48.2 °F 48.2 °F 100% 30.25 in 4.0 mi North 12.7 mph 18.4 mph 0.05 in   Light Drizzle
6:15 AM 48.2 °F 48.2 °F 100% 30.26 in 4.0 mi North 9.2 mph 17.3 mph 0.01 in Rain Light Rain
6:35 AM 48.2 °F 48.2 °F 100% 30.27 in 4.0 mi North 8.1 mph - 0.02 in Rain Light Rain
6:55 AM 48.2 °F 48.2 °F 100% 30.27 in 5.0 mi North 8.1 mph - 0.03 in Rain Light Rain
7:15 AM 48.2 °F 48.2 °F 100% 30.27 in 2.5 mi North 6.9 mph 17.3 mph 0.01 in Rain Light Rain
7:35 AM 48.2 °F 48.2 °F 100% 30.27 in 2.0 mi North 9.2 mph 17.3 mph 0.06 in Rain Rain
7:55 AM 48.2 °F 48.2 °F 100% 30.27 in 2.5 mi North 9.2 mph - 0.09 in Rain Rain
8:15 AM 48.2 °F 48.2 °F 100% 30.27 in 1.2 mi North 9.2 mph 17.3 mph 0.05 in Rain Heavy Rain
8:35 AM 48.2 °F 48.2 °F 100% 30.27 in 1.2 mi North 12.7 mph 20.7 mph 0.15 in Rain Heavy Rain
8:55 AM 48.2 °F 48.2 °F 100% 30.26 in 1.2 mi North 10.4 mph 18.4 mph 0.26 in Rain Heavy Rain
9:15 AM 50.0 °F 48.2 °F 94% 30.26 in 1.2 mi North 10.4 mph 20.7 mph 0.06 in Rain Rain
9:35 AM 50.0 °F 48.2 °F 94% 30.26 in 1.8 mi North 11.5 mph - 0.13 in Rain Rain
9:55 AM 50.0 °F 48.2 °F 94% 30.25 in 1.8 mi North 9.2 mph 19.6 mph 0.17 in Rain Rain
10:15 AM 50.0 °F 48.2 °F 94% 30.26 in 2.0 mi North 10.4 mph 16.1 mph 0.01 in Rain Light Rain
10:35 AM 51.8 °F 50.0 °F 94% 30.26 in 2.5 mi North 8.1 mph 23.0 mph 0.04 in Rain Light Rain
10:55 AM 51.8 °F 50.0 °F 94% 30.25 in 1.2 mi North 11.5 mph 18.4 mph 0.11 in Rain Light Rain
11:15 AM 51.8 °F 50.0 °F 94% 30.24 in 1.5 mi North 12.7 mph 19.6 mph 0.01 in Rain Rain
12:15 PM 51.8 °F 51.8 °F 100% 30.20 in 1.2 mi NNW 12.7 mph 19.6 mph 0.04 in Rain Light Rain
12:35 PM 51.8 °F 51.8 °F 100% 30.19 in 3.0 mi North 10.4 mph 17.3 mph 0.05 in   Overcast
1:15 PM 53.6 °F 51.8 °F 94% 30.18 in 4.0 mi North 11.5 mph 17.3 mph N/A Rain Light Rain
1:35 PM 53.6 °F 51.8 °F 94% 30.17 in 5.0 mi North 11.5 mph 20.7 mph N/A Rain Light Rain
2:15 PM 53.6 °F 51.8 °F 94% 30.16 in 3.0 mi North 15.0 mph 19.6 mph N/A   Overcast
2:35 PM 53.6 °F 51.8 °F 94% 30.16 in 3.0 mi North 11.5 mph 18.4 mph 0.01 in Rain Light Rain
2:55 PM 53.6 °F 51.8 °F 94% 30.15 in 2.0 mi North 12.7 mph 23.0 mph 0.03 in Rain Rain
3:15 PM 53.6 °F 51.8 °F 94% 30.16 in 3.0 mi North 12.7 mph 17.3 mph 0.01 in Rain Light Rain
3:55 PM 53.6 °F 51.8 °F 94% 30.15 in 1.5 mi North 15.0 mph 21.9 mph 0.07 in Rain Rain
4:15 PM 53.6 °F 51.8 °F 94% 30.16 in 2.0 mi North 10.4 mph 18.4 mph 0.01 in Rain Light Rain
4:35 PM 53.6 °F 51.8 °F 94% 30.16 in 0.8 mi North 11.5 mph 20.7 mph 0.11 in Rain Heavy Rain
4:55 PM 53.6 °F 51.8 °F 94% 30.16 in 1.0 mi North 11.5 mph 18.4 mph 0.21 in   Overcast
5:15 PM 53.6 °F 51.8 °F 94% 30.16 in 3.0 mi North 12.7 mph 21.9 mph N/A   Overcast
5:35 PM 53.6 °F 51.8 °F 94% 30.16 in 7.0 mi North 12.7 mph 21.9 mph N/A Rain Light Rain
5:55 PM 53.6 °F 51.8 °F 94% 30.16 in 8.0 mi North 13.8 mph 20.7 mph N/A   Overcast
6:15 PM 53.6 °F 51.8 °F 94% 30.17 in 8.0 mi North 11.5 mph 21.9 mph N/A Rain Light Rain
6:55 PM 53.6 °F 53.6 °F 100% 30.18 in 5.0 mi North 9.2 mph 17.3 mph N/A Rain Light Rain
7:15 PM 53.6 °F 53.6 °F 100% 30.18 in 3.0 mi North 10.4 mph 18.4 mph N/A Rain Light Rain
7:35 PM 53.6 °F 53.6 °F 100% 30.18 in 5.0 mi North 11.5 mph 18.4 mph N/A Rain Light Rain
7:55 PM 53.6 °F 53.6 °F 100% 30.18 in 3.0 mi North 10.4 mph 20.7 mph 0.01 in Rain Light Rain
8:15 PM 53.6 °F 53.6 °F 100% 30.18 in 2.5 mi North 9.2 mph 18.4 mph N/A Rain Light Rain
8:55 PM 53.6 °F 53.6 °F 100% 30.19 in 1.5 mi North 9.2 mph 20.7 mph N/A Rain Light Rain
9:15 PM 53.6 °F 53.6 °F 100% 30.18 in 1.5 mi North 10.4 mph 17.3 mph N/A Rain Light Rain
9:35 PM 53.6 °F 53.6 °F 100% 30.18 in 1.8 mi North 9.2 mph 17.3 mph N/A Rain Light Rain
9:55 PM 53.6 °F 53.6 °F 100% 30.18 in 3.0 mi North 8.1 mph 17.3 mph N/A Rain Light Rain
10:15 PM 53.6 °F 53.6 °F 100% 30.18 in 2.0 mi North 9.2 mph 16.1 mph N/A Rain Light Rain
10:35 PM 53.6 °F 53.6 °F 100% 30.18 in 2.5 mi North 9.2 mph 17.3 mph N/A Rain Light Rain
10:55 PM 53.6 °F 53.6 °F 100% 30.18 in 2.5 mi North 10.4 mph 18.4 mph N/A Rain Light Rain
11:15 PM 53.6 °F 53.6 °F 100% 30.18 in 2.5 mi North 9.2 mph 19.6 mph N/A Rain Light Rain
11:35 PM 53.6 °F 53.6 °F 100% 30.18 in 2.0 mi North 8.1 mph 18.4 mph N/A Rain Light Rain
11:55 PM 53.6 °F 53.6 °F 100% 30.18 in 2.0 mi North 10.4 mph 18.4 mph N/A Rain Light Rain